Погода в Петровке

Украина / Одесская область     46°18′33″N   29°57′16″E
темп.,
°C
ветер,
м/с
пор.,
м/с
влажн.,
%
обл.,
%
осадки,
мм/ч
давл.,
гПа
погр.,
м
5 марта, пт
пт523:00+8юз597463 0.0 1013213
02:00+7юз467775 0.0 1012114
05:00+6сз237046 0.0 101222
08:00+6ссв487436 0.0 1011263
11:00+11в345784 0.0 1012465
14:00+13ю234889 0.0 1011971
17:00+13ююв235199 0.0 101097
20:00+8ю476555 0.0 1012102
6 марта, сб
сб623:00+8ссз8137874 0.0 1013519
02:00+6ссз9137887 0.0 1016610
05:00+3с91177100 0.0 1019821
08:00+1с81267100 0.0 1022794
11:00+4с7942100 0.0 10251285
14:00+5ссз7838100 0.0 10251695
17:00+4ссз673523 0.0 10261900
20:00+1с234812 0.0 102840
7 марта, вс
вс723:000зюз22500 0.0 103022
02:000зсз36620 0.0 1030153
05:00−1зсз35650 0.0 1029146
08:000зсз35480 0.0 1029383
11:00+4зюз68390 0.0 10271409
14:00+7зюз79390 0.0 10241604
17:00+6зюз58410 0.0 10221390
20:00+3юз512520 0.0 1021342
8 марта, пн
пн823:00+2юз510660 0.0 1020274
02:00+1юз4107224 0.0 1019216
05:000зюз478045 0.0 1017147
08:00+2з237022 0.0 1018121
11:00+7всв22400 0.0 1017834
14:00+8вюв223646 0.0 10161404
17:00+7ююв334471 0.0 10141015
20:00+4ююв236668 0.0 101540
9 марта, вт
вт923:00+3ююз22710 0.0 101522
02:00+2сз22700 0.0 101522
05:00+1с510710 0.0 1016257
08:00+1с710769 0.0 1018488
11:00+4с674516 0.0 1020982
14:00+6с67398 0.0 10201443
17:00+4ссв56370 0.0 10201613
20:00+1ссв59540 0.0 1022481